This is the latest recevied weather packets stored in our database for station/object AE5EW. If no packets are shown the sender has not sent any weather packets the latest 10 day(s).
| Time | Temp. | Humidity | Pressure | Rain* | Wind** | Luminosity | Snow |
|---|---|---|---|---|---|---|---|
| 1787505247 | 33.89° C | 51% | 1018.1 hPa | 0 mm | - | - | - |
| 1787504946 | 33.89° C | 50% | 1018 hPa | 0 mm | - | - | - |
| 1787504642 | 33.89° C | 60% | 1017.9 hPa | 0 mm | - | - | - |
| 1787504338 | 33.33° C | 58% | 1018.1 hPa | 0 mm | - | - | - |
| 1787504034 | 33.33° C | 59% | 1018.1 hPa | 0 mm | - | - | - |
| 1787503734 | 33.33° C | 58% | 1018 hPa | 0 mm | - | - | - |
| 1787503430 | 33.89° C | 58% | 1017.9 hPa | 0 mm | - | - | - |
| 1787503126 | 33.89° C | 58% | 1017.9 hPa | 0 mm | - | - | - |
| 1787502821 | 34.44° C | 60% | 1018.1 hPa | 0 mm | - | - | - |
| 1787502521 | 34.44° C | 57% | 1018.3 hPa | 0 mm | - | - | - |
| 1787502220 | 33.89° C | 57% | 1018.3 hPa | 0 mm | - | - | - |
| 1787501916 | 33.33° C | 55% | 1018.3 hPa | 0 mm | - | - | - |
| 1787501613 | 32.78° C | 60% | 1018.3 hPa | 0 mm | - | - | - |
| 1787501308 | 32.78° C | 60% | 1018.2 hPa | 0 mm | - | - | - |
| 1787501005 | 32.78° C | 62% | 1018.2 hPa | 0 mm | - | - | - |
| 1787500700 | 32.78° C | 58% | 1018.2 hPa | 0 mm | - | - | - |
| 1787500396 | 32.22° C | 63% | 1018.4 hPa | 0 mm | - | - | - |
| 1787500095 | 32.22° C | 66% | 1018.2 hPa | 0 mm | - | - | - |
| 1787499790 | 31.67° C | 65% | 1018.2 hPa | 0 mm | - | - | - |
| 1787499490 | 31.11° C | 68% | 1018.4 hPa | 0 mm | - | - | - |
| 1787499186 | 31.67° C | 67% | 1018.2 hPa | 0 mm | - | - | - |
| 1787498882 | 32.22° C | 65% | 1018.3 hPa | 0 mm | - | - | - |
| 1787498580 | 31.67° C | 68% | 1018.2 hPa | 0 mm | - | - | - |
| 1787498275 | 31.67° C | 69% | 1018.2 hPa | 0 mm | - | - | - |
| 1787497971 | 32.78° C | 66% | 1018.2 hPa | 0 mm | - | - | - |
* Rain latest hour (hover to see other rain measurements)
** Current wind speed in m/s (hover to see current wind gust speed)